Weather History for Lynn Lake, MB

Change the Weather History Date:

Wednesday, December 12, 2012

  Actual Average Record
Temperature  
Mean Temperature -32 °F -  
Max Temperature -20 °F 2 °F 32 °F (1997)
Min Temperature -43 °F -11 °F -43 °F (2012)
Degree Days  
Heating Degree Days 96    
Moisture  
Dew Point -42 °F    
Average Humidity 64    
Maximum Humidity 76    
Minimum Humidity 48    
Precipitation  
Precipitation 0.00 in 0.03 in - ()
Sea Level Pressure  
Sea Level Pressure 30.27 in    
Wind  
Wind Speed 4 mph ()    
Max Wind Speed 6 mph    
Max Gust Speed -    
Visibility 7.5 miles    
Events Snow    
Averages and records for this station are not official NWS values.
T = Trace of Precipitation, MM = Missing Value Source: Averaged Metar Reports

Daily Weather History Graph

Daily Weather History Graph

Search for Another Location

Airport:

Trip Planner

Search our weather history database for the weather conditions in past years. The results will help you decide how hot, cold, wet, or windy it might be!

Date:

Astronomy

Dec. 12, 2012 Rise Set
Actual Time 9:13 AM CST 4:03 PM CST
Civil Twilight 8:24 AM CST 4:52 PM CST
Nautical Twilight 7:33 AM CST 5:42 PM CST
Astronomical Twilight 6:47 AM CST 6:29 PM CST
Moon 8:14 AM CST (12/12) 3:46 PM CST (12/12)
Length of Visible Light 8h 27m
Length of Day
6h 50m
Waning Crescent, 1% of the Moon is Illuminated
Dec 12
Waning Crescent
Dec 13
New
Dec 19
First Quarter
Dec 28
Full
Jan 4
Last Quarter

Hourly Weather History & Observations

Time (CST) Temp. Windchill Dew Point Humidity Pressure Visibility Wind Dir Wind Speed Gust Speed Precip Events Conditions
12:00 AM -35 °F - -42 °F 53% 30.16 in 10 mi NNW 4.6 mph - -  
12:00 AM -34.6 °F -50.3 °F -41.8 °F 68% 30.16 in 9.0 mi NNW 4.6 mph - N/A   Clear
1:00 AM -34.6 °F -47.4 °F -43.6 °F 61% 30.17 in 8.0 mi NW 3.5 mph - N/A   Clear
1:04 AM -36.4 °F -49.4 °F -43.6 °F 67% 30.17 in 5.0 mi WNW 3.5 mph - N/A   Haze
1:11 AM -34.6 °F -50.3 °F -41.8 °F 68% 30.17 in 6.0 mi WNW 4.6 mph - N/A   Haze
1:50 AM -34.6 °F -50.3 °F -41.8 °F 68% 30.18 in 9.0 mi NW 4.6 mph - N/A   Mostly Cloudy
1:54 AM -34.6 °F -50.3 °F -43.6 °F 61% 30.18 in 9.0 mi WNW 4.6 mph - N/A   Scattered Clouds
2:00 AM -36.4 °F -54.8 °F -45.4 °F 61% 30.18 in 9.0 mi WNW 5.8 mph - N/A   Scattered Clouds
2:47 AM -40.0 °F - -47.2 °F 67% 30.19 in 9.0 mi West 2.3 mph - N/A   Mostly Cloudy
3:00 AM -40.0 °F -56.6 °F -49.0 °F 60% 30.19 in 6.0 mi WNW 4.6 mph - N/A   Haze
3:29 AM -38.2 °F -54.5 °F -45.4 °F 67% 30.19 in 9.0 mi WNW 4.6 mph - N/A   Scattered Clouds
4:00 AM -38.2 °F - -45.4 °F 67% 30.21 in 9.0 mi WNW 2.3 mph - N/A   Clear
4:23 AM -40.0 °F -59.0 °F -49.0 °F 60% 30.21 in 5.0 mi NNW 5.8 mph - N/A   Haze
4:33 AM -38.2 °F -54.5 °F -45.4 °F 67% 30.21 in 6.0 mi NNW 4.6 mph - N/A   Haze
5:00 AM -40.0 °F -56.6 °F -49.0 °F 60% 30.22 in 9.0 mi North 4.6 mph - N/A   Clear
6:00 AM -39 °F - -46 °F 48% 30.24 in 10 mi NW 4.6 mph - -  
7:00 AM -40.0 °F -59.0 °F -47.2 °F 67% 30.25 in 9.0 mi WNW 5.8 mph - N/A   Clear
7:48 AM -38.2 °F -56.9 °F -47.2 °F 61% 30.26 in 5.0 mi NNW 5.8 mph - N/A   Haze
7:50 AM -38.2 °F -54.5 °F -47.2 °F 61% 30.26 in 5.0 mi North 4.6 mph - N/A Snow Light Snow
7:54 AM -38.2 °F -54.5 °F -45.4 °F 67% 30.26 in 6.0 mi NNW 4.6 mph - N/A Snow Light Snow
8:00 AM -38.2 °F - -47.2 °F 61% 30.27 in 9.0 mi Variable 2.3 mph - N/A Snow Light Snow
8:02 AM -38.2 °F - -47.2 °F 61% 30.27 in 9.0 mi Variable 2.3 mph - N/A   Clear
9:00 AM -40.0 °F - -47.2 °F 67% 30.28 in 9.0 mi NW 2.3 mph - N/A   Clear
10:00 AM -41.8 °F -58.7 °F -50.8 °F 60% 30.30 in 9.0 mi WSW 4.6 mph - N/A   Clear
10:10 AM -41.8 °F -61.2 °F -50.8 °F 60% 30.31 in 4.0 mi WSW 5.8 mph - N/A   Haze
10:13 AM -40.0 °F -56.6 °F -49.0 °F 60% 30.31 in 3.0 mi WSW 4.6 mph - N/A Snow Light Snow
10:22 AM -38.2 °F -51.5 °F -45.4 °F 67% 30.31 in 5.0 mi West 3.5 mph - N/A Snow Light Snow
10:29 AM -36.4 °F -54.8 °F -45.4 °F 61% 30.31 in 2.5 mi WNW 5.8 mph - N/A Snow Light Snow
10:34 AM -36.4 °F -52.4 °F -43.6 °F 67% 30.31 in 3.0 mi NW 4.6 mph - N/A Snow Light Snow
10:39 AM -34.6 °F -50.3 °F -43.6 °F 61% 30.31 in 6.0 mi NW 4.6 mph - N/A Snow Light Snow
10:45 AM -34.6 °F -52.6 °F -43.6 °F 61% 30.30 in 9.0 mi NNW 5.8 mph - N/A   Partly Cloudy
11:00 AM -34.6 °F -47.4 °F -43.6 °F 61% 30.31 in 9.0 mi North 3.5 mph - N/A   Clear
12:00 PM -28 °F - -35 °F 54% 30.31 in 10 mi WSW 3.5 mph - -  
12:00 PM -27.4 °F -39.2 °F -34.6 °F 69% 30.31 in 9.0 mi West 3.5 mph - N/A   Clear
1:00 PM -23.8 °F - -29.2 °F 76% 30.30 in 9.0 mi NNW 2.3 mph - N/A   Clear
2:00 PM -22.0 °F - -27.4 °F 76% 30.30 in 9.0 mi Calm Calm - N/A   Clear
3:00 PM -20.2 °F - -27.4 °F 69% 30.31 in 9.0 mi Calm Calm - N/A   Clear
3:57 PM -22.0 °F - -27.4 °F 76% 30.31 in 5.0 mi NE 2.3 mph - N/A   Haze
4:00 PM -22.0 °F - -27.4 °F 76% 30.31 in 5.0 mi NE 2.3 mph - N/A   Haze
4:04 PM -22.0 °F - -29.2 °F 69% 30.31 in 6.0 mi NE 2.3 mph - N/A   Haze
6:00 PM -29 °F - -36 °F 50% 30.33 in 10 mi NE 3.5 mph - -  
6:00 PM -29.2 °F -41.2 °F -36.4 °F 68% 30.33 in 9.0 mi NE 3.5 mph - N/A   Clear
7:00 PM -31.0 °F -43.3 °F -38.2 °F 68% 30.34 in 9.0 mi SSW 3.5 mph - N/A   Clear
8:00 PM -34.6 °F - -43.6 °F 61% 30.35 in 9.0 mi Calm Calm - N/A   Clear
9:00 PM -36.4 °F - -43.6 °F 67% 30.35 in 9.0 mi ENE 2.3 mph - N/A   Clear
9:17 PM -36.4 °F - -45.4 °F 61% 30.35 in 5.0 mi Calm Calm - N/A   Haze
9:25 PM -34.6 °F - -41.8 °F 68% 30.35 in 6.0 mi Calm Calm - N/A   Haze
10:00 PM -36.4 °F - -45.4 °F 61% 30.35 in 9.0 mi Calm Calm - N/A   Clear
11:00 PM -38.2 °F - -47.2 °F 61% 30.34 in 9.0 mi SE 2.3 mph - N/A   Clear